SVR48 URSS-LTAI

Flight info

Callsign SVR48
Flight time N/A
Altitude 36000
Route LAMET1D LAMET G487 ODIRA/N0451F360 UW96 SIN UT61 BAG UW77 HISAR HISA1U
Aircraft A320/M-SDE3FGHIRWY/LB1

Departure

Time 2026-05-07 09:44
Airport Sochi International Airport (URSS)

Arrival

Time N/A
Airport Antalya International Airport (LTAI)
Time Latitude Longitude Altitude Speed Heading
2026-05-07 09:19 43.44818 39.94371 75 ft 0 kts 334°
2026-05-07 09:30 43.44805 39.94379 68 ft 3 kts 334°
2026-05-07 09:30 43.44781 39.94394 72 ft 4 kts 337°
2026-05-07 09:31 43.44757 39.94407 64 ft 4 kts 342°
2026-05-07 09:31 43.44732 39.94416 70 ft 4 kts 350°
2026-05-07 09:31 43.44713 39.94419 70 ft 2 kts
2026-05-07 09:31 43.44701 39.94416 66 ft 2 kts 31°
2026-05-07 09:32 43.44694 39.94408 66 ft 0 kts 59°
2026-05-07 09:35 43.44700 39.94424 67 ft 4 kts 63°
2026-05-07 09:35 43.44711 39.94458 66 ft 4 kts 65°
2026-05-07 09:35 43.44722 39.94489 75 ft 7 kts 65°
2026-05-07 09:35 43.44751 39.94577 71 ft 10 kts 65°
2026-05-07 09:36 43.44779 39.94660 70 ft 9 kts 64°
2026-05-07 09:36 43.44806 39.94734 71 ft 8 kts 64°
2026-05-07 09:36 43.44819 39.94774 69 ft 0 kts 65°
2026-05-07 09:37 43.44847 39.94856 67 ft 17 kts 65°
2026-05-07 09:37 43.44891 39.94982 83 ft 13 kts 64°
2026-05-07 09:38 43.44924 39.95075 81 ft 9 kts 64°
2026-05-07 09:38 43.44937 39.95142 85 ft 6 kts 98°
2026-05-07 09:38 43.44926 39.95165 85 ft 0 kts 137°
2026-05-07 09:41 43.44911 39.95180 83 ft 8 kts 147°
2026-05-07 09:42 43.44861 39.95205 83 ft 7 kts 183°
2026-05-07 09:42 43.44828 39.95158 82 ft 7 kts 243°
2026-05-07 09:42 43.44816 39.95123 82 ft 0 kts 245°
2026-05-07 09:43 43.44791 39.95050 82 ft 38 kts 245°
2026-05-07 09:44 43.44543 39.94319 73 ft 126 kts 245°
2026-05-07 09:44 43.44074 39.93025 452 ft 161 kts 243°
2026-05-07 09:44 43.43615 39.91591 1417 ft 168 kts 253°
2026-05-07 09:44 43.43363 39.89960 2148 ft 183 kts 260°
2026-05-07 09:45 43.43116 39.88138 2512 ft 206 kts 253°
2026-05-07 09:45 43.42787 39.86112 2977 ft 227 kts 257°
2026-05-07 09:45 43.42429 39.83914 3581 ft 244 kts 257°
2026-05-07 09:45 43.42033 39.81560 4213 ft 261 kts 257°
2026-05-07 09:46 43.41612 39.79100 5085 ft 267 kts 257°
2026-05-07 09:46 43.41181 39.76598 6019 ft 271 kts 257°
2026-05-07 09:46 43.40745 39.74059 6885 ft 275 kts 257°
2026-05-07 09:46 43.40299 39.71475 7750 ft 280 kts 257°
2026-05-07 09:47 43.39846 39.68850 8623 ft 284 kts 257°
2026-05-07 09:47 43.39388 39.66196 9499 ft 288 kts 258°
2026-05-07 09:47 43.38924 39.63497 9900 ft 291 kts 258°
2026-05-07 09:47 43.38634 39.60752 9995 ft 290 kts 266°
2026-05-07 09:48 43.38445 39.57977 10007 ft 300 kts 264°
2026-05-07 09:48 43.38227 39.54975 9997 ft 330 kts 266°
2026-05-07 09:48 43.38003 39.51736 9996 ft 344 kts 266°
2026-05-07 09:48 43.37779 39.48454 9992 ft 345 kts 266°
2026-05-07 09:49 43.37558 39.45180 9996 ft 344 kts 266°
2026-05-07 09:49 43.37334 39.41900 9993 ft 344 kts 266°
2026-05-07 09:49 43.37106 39.38627 9994 ft 344 kts 266°
2026-05-07 09:49 43.36875 39.35355 9991 ft 344 kts 265°
2026-05-07 09:50 43.36643 39.32084 10195 ft 344 kts 265°
2026-05-07 09:50 43.36407 39.28785 10885 ft 349 kts 265°
2026-05-07 09:50 43.36167 39.25443 11663 ft 353 kts 265°
2026-05-07 09:50 43.35925 39.22063 12407 ft 358 kts 265°
2026-05-07 09:51 43.35680 39.18637 13140 ft 363 kts 265°
2026-05-07 09:51 43.35433 39.15172 13862 ft 367 kts 265°
2026-05-07 09:51 43.35176 39.11658 14514 ft 372 kts 264°
2026-05-07 09:51 43.34696 39.08145 15156 ft 376 kts 255°
2026-05-07 09:52 43.33829 39.04738 15802 ft 380 kts 249°
2026-05-07 09:52 43.32866 39.01337 16444 ft 384 kts 250°
2026-05-07 09:52 43.31901 38.97902 17087 ft 387 kts 250°
2026-05-07 09:52 43.30930 38.94436 17726 ft 391 kts 250°
2026-05-07 09:53 43.29950 38.90940 18339 ft 394 kts 250°
2026-05-07 09:53 43.28971 38.87459 18912 ft 398 kts 250°
2026-05-07 09:53 43.27968 38.83905 19471 ft 401 kts 250°
2026-05-07 09:53 43.26955 38.80323 20009 ft 404 kts 250°
2026-05-07 09:54 43.25934 38.76708 20577 ft 408 kts 250°
2026-05-07 09:54 43.24897 38.73070 21115 ft 411 kts 249°
2026-05-07 09:54 43.23843 38.69404 21634 ft 415 kts 249°
2026-05-07 09:54 43.22777 38.65715 22145 ft 418 kts 249°
2026-05-07 09:55 43.21704 38.62002 22646 ft 421 kts 249°
2026-05-07 09:55 43.20622 38.58261 23132 ft 424 kts 249°
2026-05-07 09:55 43.19525 38.54486 23616 ft 427 kts 249°
2026-05-07 09:55 43.18423 38.50695 24026 ft 430 kts 249°
2026-05-07 09:56 43.17313 38.46873 24407 ft 433 kts 249°
2026-05-07 09:56 43.16196 38.43032 24770 ft 436 kts 249°
2026-05-07 09:56 43.15071 38.39162 25126 ft 438 kts 249°
2026-05-07 09:56 43.13937 38.35272 25472 ft 441 kts 249°
2026-05-07 09:57 43.12796 38.31359 25819 ft 444 kts 249°
2026-05-07 09:57 43.11644 38.27424 26168 ft 446 kts 249°
2026-05-07 09:57 43.10484 38.23477 26506 ft 449 kts 249°
2026-05-07 09:57 43.09312 38.19505 26835 ft 451 kts 249°
2026-05-07 09:58 43.08137 38.15515 27164 ft 454 kts 249°
2026-05-07 09:58 43.06966 38.11491 27479 ft 456 kts 249°
2026-05-07 09:58 43.05797 38.07454 27782 ft 458 kts 249°
2026-05-07 09:58 43.04623 38.03388 28097 ft 461 kts 249°
2026-05-07 09:59 43.03442 37.99306 28390 ft 463 kts 249°
2026-05-07 09:59 43.02247 37.95208 28665 ft 465 kts 249°
2026-05-07 09:59 43.01040 37.91100 28943 ft 467 kts 249°
2026-05-07 09:59 42.99817 37.86983 29210 ft 469 kts 249°
2026-05-07 10:00 42.98583 37.82847 29463 ft 471 kts 249°
2026-05-07 10:00 42.97349 37.78693 29710 ft 473 kts 249°
2026-05-07 10:00 42.96111 37.74529 29955 ft 474 kts 249°
2026-05-07 10:00 42.94864 37.70352 30195 ft 475 kts 249°
2026-05-07 10:01 42.93613 37.66180 30483 ft 474 kts 249°
2026-05-07 10:01 42.92362 37.62022 30767 ft 473 kts 249°
2026-05-07 10:01 42.91109 37.57873 31036 ft 473 kts 249°
2026-05-07 10:01 42.89859 37.53727 31296 ft 472 kts 249°
2026-05-07 10:02 42.88628 37.49639 31565 ft 472 kts 249°
2026-05-07 10:02 42.87383 37.45509 31849 ft 471 kts 249°
2026-05-07 10:02 42.86138 37.41379 32129 ft 470 kts 249°
2026-05-07 10:02 42.84895 37.37266 32414 ft 470 kts 249°
2026-05-07 10:03 42.83648 37.33152 32690 ft 469 kts 249°
2026-05-07 10:03 42.82402 37.29050 32969 ft 468 kts 249°
2026-05-07 10:03 42.81156 37.24956 33238 ft 468 kts 249°
2026-05-07 10:03 42.79910 37.20864 33515 ft 467 kts 249°
2026-05-07 10:04 42.78669 37.16784 33783 ft 467 kts 249°
2026-05-07 10:04 42.77422 37.12700 34060 ft 466 kts 248°
2026-05-07 10:04 42.76173 37.08632 34320 ft 466 kts 248°
2026-05-07 10:04 42.74920 37.04568 34536 ft 465 kts 248°
2026-05-07 10:05 42.74095 37.01885 34706 ft 465 kts 248°
2026-05-07 10:05 42.72845 36.97828 34954 ft 464 kts 248°
2026-05-07 10:05 42.71598 36.93786 35180 ft 463 kts 248°
2026-05-07 10:05 42.70331 36.89769 35412 ft 462 kts 247°
2026-05-07 10:06 42.68979 36.85801 35628 ft 462 kts 245°
2026-05-07 10:06 42.67560 36.81894 35835 ft 461 kts 244°
2026-05-07 10:06 42.66105 36.78011 36042 ft 461 kts 244°
2026-05-07 10:06 42.64643 36.74136 36182 ft 461 kts 244°
2026-05-07 10:07 42.63186 36.70251 36219 ft 461 kts 244°
2026-05-07 10:07 42.60321 36.62466 36217 ft 461 kts 245°
2026-05-07 10:08 42.57487 36.54671 36216 ft 461 kts 245°
2026-05-07 10:08 42.54644 36.46888 36216 ft 460 kts 244°
2026-05-07 10:09 42.51791 36.39124 36215 ft 460 kts 244°
2026-05-07 10:09 42.48929 36.31374 36219 ft 460 kts 244°
2026-05-07 10:10 42.46064 36.23635 36212 ft 459 kts 244°
2026-05-07 10:10 42.43200 36.15902 36213 ft 459 kts 244°
2026-05-07 10:11 42.40335 36.08190 36208 ft 459 kts 244°
2026-05-07 10:11 42.37468 36.00488 36208 ft 458 kts 244°
2026-05-07 10:12 42.34587 35.92799 36208 ft 458 kts 244°
2026-05-07 10:12 42.31712 35.85118 36207 ft 458 kts 244°
2026-05-07 10:13 42.28832 35.77456 36201 ft 458 kts 244°
2026-05-07 10:13 42.25963 35.69846 36205 ft 457 kts 244°
2026-05-07 10:14 42.23073 35.62204 36199 ft 457 kts 244°
2026-05-07 10:14 42.20181 35.54571 36195 ft 457 kts 244°
2026-05-07 10:15 42.17285 35.46949 36194 ft 457 kts 244°
2026-05-07 10:15 42.14382 35.39320 36194 ft 457 kts 245°
2026-05-07 10:16 42.11483 35.31697 36196 ft 457 kts 245°
2026-05-07 10:16 42.08591 35.24076 36194 ft 457 kts 245°
2026-05-07 10:17 42.05688 35.16464 36184 ft 457 kts 245°
2026-05-07 10:17 42.02615 35.08963 36185 ft 460 kts 237°
2026-05-07 10:18 41.98211 35.02688 36168 ft 465 kts 224°
2026-05-07 10:18 41.93382 34.96907 36170 ft 465 kts 224°
2026-05-07 10:19 41.88554 34.91116 36164 ft 466 kts 224°
2026-05-07 10:19 41.83721 34.85331 36161 ft 466 kts 224°
2026-05-07 10:20 41.78880 34.79560 36150 ft 466 kts 224°
2026-05-07 10:20 41.74027 34.73786 36154 ft 466 kts 224°
2026-05-07 10:21 41.69174 34.68022 36151 ft 467 kts 224°
2026-05-07 10:21 41.64318 34.62260 36144 ft 467 kts 224°
2026-05-07 10:22 41.59452 34.56511 36133 ft 467 kts 224°
2026-05-07 10:22 41.54589 34.50767 36137 ft 467 kts 224°
2026-05-07 10:23 41.49745 34.45003 36133 ft 466 kts 224°
2026-05-07 10:23 41.44902 34.39235 36132 ft 467 kts 224°
2026-05-07 10:24 41.40052 34.33487 36132 ft 466 kts 224°
2026-05-07 10:24 41.35197 34.27765 36135 ft 467 kts 224°
2026-05-07 10:25 41.30337 34.22041 36140 ft 466 kts 224°
2026-05-07 10:25 41.25473 34.16344 36155 ft 466 kts 224°
2026-05-07 10:26 41.20611 34.10661 36150 ft 465 kts 224°
2026-05-07 10:26 41.15753 34.04989 36156 ft 465 kts 224°
2026-05-07 10:27 41.10893 33.99324 36155 ft 465 kts 224°
2026-05-07 10:27 41.06029 33.93668 36165 ft 464 kts 224°
2026-05-07 10:28 41.01172 33.88033 36167 ft 464 kts 224°
2026-05-07 10:28 40.96314 33.82408 36179 ft 464 kts 224°
2026-05-07 10:29 40.91454 33.76792 36172 ft 464 kts 224°
2026-05-07 10:29 40.86600 33.71191 36178 ft 463 kts 224°
2026-05-07 10:30 40.79314 33.62822 36180 ft 463 kts 224°
2026-05-07 10:30 40.74450 33.57245 36176 ft 463 kts 224°